Fort Wayne, IN

6:37 AM EDT on May 30, 2017 (GMT -0400)
Fort Wayne International

Weather History for KFWA - July, 2013

Change the Weather History Date:

Friday, July 5, 2013

  Actual Average Record
Temperature  
Mean Temperature 75 °F 74 °F  
Max Temperature 82 °F 85 °F 101 °F (2012)
Min Temperature 67 °F 63 °F 48 °F (1967)
Degree Days  
Heating Degree Days 0 0  
Month to date heating degree days 0 0  
Since 1 June heating degree days 19 29  
Since 1 July heating degree days 0 0  
Cooling Degree Days 10 9  
Month to date cooling degree days 27 45  
Year to date cooling degree days 321 284  
Since 1 June cooling degree days 216 227  
Growing Degree Days 24 (Base 50)    
Moisture  
Dew Point 67 °F    
Average Humidity 79    
Maximum Humidity 100    
Minimum Humidity 58    
Precipitation  
Precipitation T in 0.13 in 1.06 in (1904)
Month to date precipitation 0.69 0.65  
Year to date precipitation 24.27 19.61  
Snow  
Snow 0.00 in 0.00 in 0.00 in (2002)
Month to date snowfall 0.0 0.0  
Since 1 June snowfall 0.0 0.0  
Since 1 July snowfall 0.0 0.0  
Snow Depth 0.00 in    
Sea Level Pressure  
Sea Level Pressure 30.10 in    
Wind  
Wind Speed 4 mph (SSW)    
Max Wind Speed 10 mph    
Max Gust Speed 13 mph    
Visibility 8 miles    
Events Rain    
T = Trace of Precipitation, MM = Missing Value Source: NWS Daily Summary

Daily Weather History Graph

Daily Weather History Graph

Search for Another Location

Airport or City:

Trip Planner

Search our weather history database for the weather conditions in past years. The results will help you decide how hot, cold, wet, or windy it might be!

Date:

Astronomy

Jul. 05, 2013 Rise Set
Actual Time 6:14 AM EDT 9:15 PM EDT
Civil Twilight 5:41 AM EDT 9:48 PM EDT
Nautical Twilight 4:59 AM EDT 10:31 PM EDT
Astronomical Twilight 4:09 AM EDT 11:20 PM EDT
Moon 4:14 AM EDT (7/5) 7:09 PM EDT (7/5)
Length of Visible Light 16h 07m
Length of Day
15h 01m
Waning Crescent, 6% of the Moon is Illuminated
Jul 5
Waning Crescent
Jul 8
New
Jul 15
First Quarter
Jul 22
Full
Jul 29
Last Quarter

Hourly Weather History & Observations

Time (EDT) Temp. Heat Index Dew Point Humidity Pressure Visibility Wind Dir Wind Speed Gust Speed Precip Events Conditions
12:54 AM 70.0 °F - 68.0 °F 93% 30.09 in 8.0 mi Calm Calm - N/A   Overcast
1:54 AM 70.0 °F - 66.9 °F 90% 30.09 in 8.0 mi ESE 5.8 mph - 0.00 in Rain Light Rain
2:54 AM 69.1 °F - 66.9 °F 93% 30.09 in 7.0 mi WSW 3.5 mph - 0.00 in   Overcast
3:20 AM 69.8 °F - 66.2 °F 88% 30.09 in 7.0 mi Calm Calm - N/A   Overcast
3:54 AM 68.0 °F - 66.9 °F 96% 30.09 in 6.0 mi Calm Calm - N/A   Overcast
4:54 AM 68.0 °F - 66.9 °F 96% 30.08 in 5.0 mi Calm Calm - N/A   Overcast
5:54 AM 66.9 °F - 66.0 °F 97% 30.08 in 5.0 mi Calm Calm - N/A   Overcast
6:54 AM 66.9 °F - 66.0 °F 97% 30.09 in 4.0 mi Calm Calm - N/A   Mostly Cloudy
7:45 AM 68.0 °F - 66.2 °F 94% 30.12 in 4.0 mi Calm Calm - N/A   Mostly Cloudy
7:54 AM 68.0 °F - 66.9 °F 96% 30.11 in 4.0 mi South 3.5 mph - N/A   Mostly Cloudy
8:54 AM 70.0 °F - 68.0 °F 93% 30.13 in 4.0 mi WSW 3.5 mph - N/A   Overcast
9:54 AM 72.0 °F - 68.0 °F 87% 30.13 in 7.0 mi NW 4.6 mph - N/A   Mostly Cloudy
10:36 AM 73.4 °F - 66.2 °F 78% 30.15 in 7.0 mi Calm Calm - N/A   Mostly Cloudy
10:54 AM 75.0 °F - 66.9 °F 76% 30.13 in 7.0 mi Calm Calm - N/A   Mostly Cloudy
11:29 AM 77.0 °F - 66.2 °F 69% 30.14 in 10.0 mi Calm Calm - N/A   Mostly Cloudy
11:54 AM 78.1 °F - 66.9 °F 68% 30.13 in 10.0 mi Variable 3.5 mph - N/A   Mostly Cloudy
12:54 PM 75.9 °F - 66.9 °F 74% 30.13 in 10.0 mi SSW 5.8 mph - N/A   Mostly Cloudy
1:54 PM 78.1 °F - 66.0 °F 66% 30.11 in 10.0 mi SSW 5.8 mph - N/A   Mostly Cloudy
2:54 PM 80.1 °F 82.3 °F 66.9 °F 64% 30.11 in 10.0 mi SW 4.6 mph - N/A   Mostly Cloudy
3:54 PM 79.0 °F - 66.0 °F 64% 30.10 in 10.0 mi SW 4.6 mph - N/A   Mostly Cloudy
4:54 PM 81.0 °F 83.0 °F 66.0 °F 60% 30.09 in 10.0 mi SW 6.9 mph - N/A   Mostly Cloudy
5:54 PM 82.0 °F 84.5 °F 66.9 °F 60% 30.08 in 10.0 mi SW 6.9 mph - N/A   Mostly Cloudy
6:54 PM 80.1 °F 82.1 °F 66.0 °F 62% 30.06 in 10.0 mi SSW 5.8 mph - N/A   Mostly Cloudy
7:54 PM 78.1 °F - 66.9 °F 68% 30.07 in 10.0 mi South 5.8 mph - N/A   Mostly Cloudy
8:54 PM 75.0 °F - 68.0 °F 79% 30.07 in 10.0 mi South 3.5 mph - N/A   Mostly Cloudy
9:54 PM 72.0 °F - 68.0 °F 87% 30.09 in 10.0 mi SSE 3.5 mph - N/A   Mostly Cloudy
10:54 PM 72.0 °F - 68.0 °F 87% 30.10 in 10.0 mi Calm Calm - N/A   Mostly Cloudy
11:54 PM 71.1 °F - 66.9 °F 87% 30.11 in 10.0 mi South 4.6 mph - N/A   Mostly Cloudy